Location: Unspecified
(22.6800°N, 112.2000°E)
Time: 11:56:21
(UTC+08:00)

Transit 2A - Pass Details

Date: 11 August 2021
Orbit: 595 x 963 km, 66.7° (Epoch: 16 September)

Event Time Altitude Azimuth Distance (km) Brightness Sun altitude
Rises 02:27:48 0° 162° (SSE) 2,822 - -43.2°
Reaches altitude 10° 02:31:05 10° 135° (SE) 1,919 - -42.8°
Maximum altitude 02:33:09 13° 106° (ESE) 1,717 - -42.5°
Drops below altitude 10° 02:35:15 10° 76° (ENE) 1,945 - -42.2°
Exits shadow 02:36:40 - 62° (ENE) 2,291 9.1 -41.9°
Sets 02:38:36 0° 50° (NE) 2,891 9.8 -41.7°
